Lid_Strength_Index
6 8 9 8 7 7 8 7 6 6 4 5 6 3 2 1 -0 -1 -1 -1 -2 -1 -1 -1 -1 -1 -1 -1 -1 -1 -1 -1
7 9 8 8 6 6 9 6 6 5 6 4 2 3 1 0 -0 -0 -0 -1 -1 -1 -1 -1 -1 -1 -1 -1 -1 -1 -1 -1
7 8 7 6 5 5 8 6 5 5 6 5 3 1 0 0 -0 0 -0 -1 -1 -1 -1 -1 -1 -1 -1 -1 -1 -1 -1 -1
9 8 7 6 5 5 5 5 4 5 5 6 3 2 1 0 0 -1 -0 -1 -1 -1 -1 -1 -1 -1 -1 -1 -1 -1 -1 -1
8 8 7 6 4 5 5 4 5 4 6 6 3 1 1 0 -0 -0 -1 -1 -1 -1 -1 -1 -1 -1 -1 -1 -1 -1 -1 -1
7 8 8 6 5 4 4 5 5 5 5 4 3 1 0 0 0 -0 -0 -1 -1 -1 -1 -1 -1 -1 -1 -1 -1 -1 -1 -1
8 8 7 5 6 4 4 4 5 5 4 3 2 1 1 1 1 1 0 -0 -1 -1 -1 -1 -1 -1 -1 -1 -1 -1 -1 -1
6 6 6 6 6 5 5 5 5 5 5 4 4 2 2 2 1 1 1 0 -0 -1 -1 -1 -1 -1 -1 -1 -2 -2 -2 -2
7 6 6 6 6 5 5 5 4 4 4 4 3 2 2 1 1 1 1 0 -0 -0 -1 -1 -1 -1 -1 -1 -1 -2 -2 -2
6 5 6 6 5 5 5 5 4 4 3 3 3 3 2 2 1 1 0 0 -0 -1 -0 -1 -1 -1 -1 -1 -1 -1 -1 -2
5 5 5 5 6 5 5 4 3 3 3 3 2 2 1 1 1 0 0 -0 -0 -1 -0 -1 -1 -1 -1 -1 -1 -1 -1 -2
5 6 5 6 6 5 5 4 4 3 3 2 2 1 1 1 1 0 -0 -0 -0 -1 -1 -1 -0 -1 -0 -1 -1 -1 -1 -1
6 6 6 5 7 6 4 4 4 3 2 2 2 1 1 1 1 0 -0 -1 -0 -1 -1 -1 -0 -1 -1 -1 -1 -1 -1 -2
6 6 6 6 8 5 4 4 4 4 3 3 2 1 1 0 0 -0 -0 -1 -1 -0 -0 -0 -0 -0 -1 -1 -1 -1 -1 -1
8 6 7 6 8 6 5 4 4 4 4 3 3 1 1 1 0 -0 -0 -1 -0 -1 -0 -0 -1 -1 -1 -1 -1 -1 -1 -1
9 7 7 7 7 5 5 5 4 4 4 3 3 2 1 0 0 -0 -0 -1 -1 -0 -1 -1 -0 -0 -0 -0 -1 -1 -1 -1
8 6 7 7 7 6 5 4 4 4 3 3 3 2 1 1 0 0 -0 -0 -0 -0 -0 0 0 1 0 1 -0 -0 -1 -1
7 6 7 7 7 6 5 5 4 4 4 3 3 2 2 1 1 0 0 0 -0 -0 -0 0 -0 -0 -0 -0 -0 -1 -1 -1
8 7 6 7 8 7 6 5 4 4 3 3 3 3 2 2 1 1 1 0 0 0 -0 -0 -1 -0 0 -0 -0 0 -0 -0
8 8 11 7 12 8 6 6 5 4 4 3 3 3 2 2 2 1 1 0 -0 -0 -0 -0 -1 -0 -0 1 1 0 -0 -1